Date String (YYYY-MM-DD hh:mm:ss) UTC,Instrument flags,absolute air pressure of the measurement (hPa),sample flow rate (lpm),inlet stack bypass flow (lpm),air temperature of the measurement (°C),ambient temperature measured by the external sensor (°C),aerosol sample conditioner tube jacket temperature (°C),OPC LED temperature (°C),internal box temperature (°C),relative humidity of the measurement (%),span deviation,mass concentration of particles derived from Lorenz-Mie calculation of OPC scattering (μg/m³),mass concentration of particles derived from Lorenz-Mie calculation of OPC scattering (μg/m³),mass concentration of particles derived from Lorenz-Mie calculation of OPC scattering (μg/m³)
DateTimeUTC,F1_M11,P_M11,Q1_M11,Q2_M11,T1_M11,T2_M11,T3_M11,T4_M11,T5_M11,U1_M11,ZSPAN_M11,X2_M11,X0_M11,X1_M11
2024-04-21 22:00:00,SystemResetWarning,0831.3,4.99,000.00,022.8,022.2,000.0,031.1,024.6,024.2,0000.7,0009.67,0015.39,0009.26
2024-04-21 22:01:00,SystemResetWarning,0831.3,5.00,000.00,022.8,022.2,000.0,031.1,024.6,023.6,0001.0,0009.67,0015.10,0009.25
2024-04-21 22:02:00,SystemResetWarning,0831.3,5.00,000.00,022.8,022.2,000.0,031.2,024.6,023.7,0001.0,0009.66,0014.99,0009.24
2024-04-21 22:03:00,SystemResetWarning,0831.3,4.99,000.00,022.8,022.2,000.0,031.2,024.6,023.4,0000.9,0009.61,0014.87,0009.20
2024-04-21 22:04:00,SystemResetWarning,0831.3,5.00,000.00,022.9,022.2,000.0,031.2,024.6,022.9,0000.8,0009.47,0014.63,0009.08
2024-04-21 22:05:00,SystemResetWarning,0831.3,5.00,000.00,022.9,022.3,000.0,031.2,024.6,023.4,0000.9,0009.40,0015.26,0009.00
2024-04-21 22:06:00,SystemResetWarning,0831.3,5.01,000.00,022.9,022.3,000.0,031.2,024.7,022.3,0000.8,0009.37,0014.68,0008.95
2024-04-21 22:07:00,SystemResetWarning,0831.3,5.01,000.00,022.9,022.3,000.0,031.2,024.7,022.6,0000.8,0009.38,0014.70,0008.94
2024-04-21 22:08:00,SystemResetWarning,0831.3,5.01,000.00,022.9,022.3,000.0,031.2,024.7,023.7,0000.9,0009.36,0015.23,0008.92
2024-04-21 22:09:00,SystemResetWarning,0831.3,5.00,000.00,022.9,022.3,000.0,031.2,024.7,023.1,0000.9,0009.30,0014.86,0008.86
2024-04-21 22:10:00,SystemResetWarning,0831.3,4.99,000.00,022.9,022.3,000.0,031.2,024.7,022.9,0000.6,0009.24,0014.58,0008.81
2024-04-21 22:11:00,SystemResetWarning,0831.3,5.00,000.00,022.9,022.3,000.0,031.2,024.7,022.6,0000.6,0009.15,0014.05,0008.73
2024-04-21 22:12:00,SystemResetWarning,0831.3,5.00,000.00,022.9,022.3,000.0,031.3,024.7,022.4,0000.6,0009.02,0013.75,0008.62
2024-04-21 22:13:00,SystemResetWarning,0831.2,5.00,000.00,023.0,022.3,000.0,031.3,024.8,022.3,0000.6,0008.94,0013.70,0008.53
2024-04-21 22:14:00,SystemResetWarning,0831.2,5.00,000.00,023.0,022.4,000.0,031.3,024.8,022.1,0000.6,0008.88,0013.65,0008.46
2024-04-21 22:15:00,SystemResetWarning,0831.2,5.00,000.00,023.0,022.4,000.0,031.3,024.8,022.8,0000.5,0008.90,0013.73,0008.46
2024-04-21 22:16:00,SystemResetWarning,0831.2,5.00,000.00,023.0,022.4,000.0,031.3,024.8,022.7,0000.6,0008.89,0013.28,0008.47
2024-04-21 22:17:00,SystemResetWarning,0831.3,5.00,000.00,023.0,022.4,000.0,031.3,024.8,022.7,0000.4,0008.88,0013.25,0008.46
2024-04-21 22:18:00,SystemResetWarning,0831.2,5.00,000.00,023.0,022.4,000.0,031.3,024.8,022.1,0000.2,0008.89,0013.45,0008.46
2024-04-21 22:19:00,SystemResetWarning,0831.2,5.00,000.00,023.0,022.4,000.0,031.3,024.9,022.2,-000.0,0008.92,0013.15,0008.47
2024-04-21 22:20:00,SystemResetWarning,0831.2,5.00,000.00,023.0,022.5,000.0,031.4,024.9,022.3,-000.1,0008.94,0013.20,0008.48
2024-04-21 22:21:00,SystemResetWarning,0831.2,4.99,000.00,023.1,022.5,000.0,031.4,024.9,022.6,0000.1,0008.94,0013.22,0008.46
2024-04-21 22:22:00,SystemResetWarning,0831.2,5.00,000.00,023.1,022.5,000.0,031.4,024.9,022.3,0000.1,0008.92,0013.25,0008.44
2024-04-21 22:23:00,SystemResetWarning,0831.1,5.00,000.00,023.1,022.5,000.0,031.4,024.9,022.9,-000.2,0008.93,0013.30,0008.44
2024-04-21 22:24:00,SystemResetWarning,0831.1,4.99,000.00,023.1,022.5,000.0,031.4,024.9,022.7,-000.3,0008.90,0013.27,0008.42
2024-04-21 22:25:00,SystemResetWarning,0831.1,5.01,000.00,023.1,022.5,000.0,031.4,024.9,022.0,-000.0,0008.91,0013.48,0008.41
2024-04-21 22:26:00,SystemResetWarning,0831.1,5.00,000.00,023.1,022.5,000.0,031.4,024.9,022.4,0000.4,0008.93,0013.74,0008.41
2024-04-21 22:27:00,SystemResetWarning,0831.1,5.00,000.00,023.1,022.5,000.0,031.4,024.9,023.0,0000.3,0008.92,0013.44,0008.38
2024-04-21 22:28:00,SystemResetWarning,0831.1,5.00,000.00,023.1,022.5,000.0,031.5,024.9,023.1,0000.5,0008.90,0013.41,0008.35
2024-04-21 22:29:00,SystemResetWarning,0831.0,5.00,000.00,023.2,022.5,000.0,031.5,024.9,023.2,0000.7,0008.83,0013.30,0008.30
2024-04-21 22:30:00,SystemResetWarning,0831.0,5.00,000.00,023.2,022.6,000.0,031.5,025.0,022.9,0000.4,0008.80,0013.10,0008.26
2024-04-21 22:31:00,SystemResetWarning,0831.1,5.01,000.00,023.2,022.6,000.0,031.5,025.0,022.4,0000.6,0008.79,0014.17,0008.26
2024-04-21 22:32:00,SystemResetWarning,0831.0,5.00,000.00,023.2,022.6,000.0,031.5,025.0,022.9,0000.9,0008.78,0014.50,0008.28
2024-04-21 22:33:00,SystemResetWarning,0831.0,5.00,000.00,023.2,022.6,000.0,031.5,025.0,022.5,0001.1,0008.80,0014.50,0008.31
2024-04-21 22:34:00,SystemResetWarning,0831.0,5.00,000.00,023.2,022.7,000.0,031.5,025.0,021.9,0001.1,0008.84,0014.53,0008.35
2024-04-21 22:35:00,SystemResetWarning,0830.9,5.00,000.00,023.2,022.7,000.0,031.5,025.0,022.2,0001.2,0008.92,0014.63,0008.43
2024-04-21 22:36:00,SystemResetWarning,0830.9,5.00,000.00,023.3,022.7,000.0,031.6,025.0,022.4,0001.1,0008.98,0014.56,0008.47
2024-04-21 22:37:00,SystemResetWarning,0830.9,5.00,000.00,023.3,022.7,000.0,031.6,025.1,022.5,0000.9,0008.99,0014.40,0008.50
2024-04-21 22:38:00,SystemResetWarning,0830.8,5.00,000.00,023.3,022.7,000.0,031.6,025.1,023.1,0001.1,0009.00,0014.77,0008.54
2024-04-21 22:39:00,SystemResetWarning,0830.8,5.01,000.00,023.3,022.7,000.0,031.6,025.1,021.9,0001.3,0009.02,0015.03,0008.57
2024-04-21 22:40:00,SystemResetWarning,0830.9,4.99,000.00,023.3,022.7,000.0,031.6,025.1,021.8,0001.2,0009.11,0015.02,0008.67
2024-04-21 22:41:00,SystemResetWarning,0830.8,5.00,000.00,023.3,022.7,000.0,031.6,025.1,021.9,0001.4,0009.19,0015.14,0008.73
2024-04-21 22:42:00,SystemResetWarning,0830.9,5.00,000.00,023.3,022.8,000.0,031.6,025.1,022.2,0001.6,0009.24,0014.45,0008.78
2024-04-21 22:43:00,SystemResetWarning,0830.8,5.00,000.00,023.3,022.7,000.0,031.6,025.1,022.0,0001.4,0009.28,0013.95,0008.81
2024-04-21 22:44:00,SystemResetWarning,0830.8,5.00,000.00,023.4,022.7,000.0,031.7,025.1,022.1,0001.1,0009.35,0014.06,0008.86
2024-04-21 22:45:00,SystemResetWarning,0830.8,5.00,000.00,023.4,022.7,000.0,031.7,025.1,022.3,0001.1,0009.41,0014.11,0008.91
2024-04-21 22:46:00,SystemResetWarning,0830.8,5.00,000.00,023.4,022.8,000.0,031.7,025.1,022.1,0001.1,0009.42,0014.08,0008.94
2024-04-21 22:47:00,SystemResetWarning,0830.8,5.00,000.00,023.4,022.8,000.0,031.7,025.1,021.7,0000.9,0009.46,0014.14,0008.98
2024-04-21 22:48:00,SystemResetWarning,0830.8,5.00,000.00,023.4,022.8,000.0,031.7,025.2,021.7,0000.9,0009.52,0014.04,0009.05
2024-04-21 22:49:00,SystemResetWarning,0830.8,5.01,000.00,023.4,022.8,000.0,031.7,025.2,021.7,0000.7,0009.60,0013.72,0009.13
2024-04-21 22:50:00,SystemResetWarning,0830.7,5.00,000.00,023.4,022.8,000.0,031.7,025.2,021.6,0000.5,0009.68,0013.59,0009.20
2024-04-21 22:51:00,SystemResetWarning,0830.8,5.00,000.00,023.4,022.8,000.0,031.7,025.2,021.8,0000.6,0009.68,0013.59,0009.20
2024-04-21 22:52:00,SystemResetWarning,0830.8,5.00,000.00,023.4,022.8,000.0,031.8,025.2,021.6,0000.6,0009.65,0014.02,0009.20
2024-04-21 22:53:00,SystemResetWarning,0830.8,5.00,000.00,023.5,022.8,000.0,031.8,025.2,021.9,0000.4,0009.65,0014.63,0009.20
2024-04-21 22:54:00,SystemResetWarning,0830.8,5.00,000.00,023.5,022.9,000.0,031.8,025.2,022.3,0000.5,0009.67,0015.37,0009.22
2024-04-21 22:55:00,SystemResetWarning,0830.7,5.00,000.00,023.5,022.9,000.0,031.8,025.2,021.6,0000.6,0009.67,0016.11,0009.22
2024-04-21 22:56:00,SystemResetWarning,0830.7,5.00,000.00,023.5,022.9,000.0,031.8,025.2,021.7,0000.6,0009.71,0016.30,0009.25
2024-04-21 22:57:00,SystemResetWarning,0830.7,5.01,000.00,023.5,022.9,000.0,031.8,025.3,021.8,0000.6,0009.75,0016.34,0009.28
2024-04-21 22:58:00,SystemResetWarning,0830.7,5.01,000.00,023.5,022.9,000.0,031.8,025.2,021.5,0000.7,0009.78,0016.65,0009.32
2024-04-21 22:59:00,SystemResetWarning,0830.7,5.01,000.00,023.5,022.9,000.0,031.8,025.3,021.6,0000.5,0009.80,0016.75,0009.34
